GFSFLT1_500_rhum_273.txt.gz
RH
21 28 39 48 53 50 40 30 23 25 47 48 34 26 42 56 46 48 52 48 46 42 35 32 28 24 21 17 16 15 12 10
39 31 23 15 22 35 36 35 28 24 31 45 47 44 34 36 62 53 49 52 46 46 46 44 35 27 28 26 19 18 16 16
2 14 26 29 28 23 20 18 25 21 19 25 40 48 55 49 36 58 60 54 56 52 46 55 48 32 30 26 25 28 28 24
1 1 1 2 6 11 18 24 24 29 20 16 22 31 49 54 56 37 68 72 64 72 55 52 55 41 32 35 32 31 41 43
1 1 1 1 1 1 2 4 12 26 30 27 16 25 33 50 63 60 45 58 82 78 68 55 47 53 43 36 52 65 62 62
2 1 1 1 1 1 1 1 2 4 15 27 29 20 25 35 54 74 65 59 48 87 87 70 64 52 47 47 55 74 84 77
11 19 21 20 19 11 3 1 1 1 1 4 15 25 23 27 33 62 80 84 73 70 93 90 78 66 54 54 67 71 83 82
37 30 44 37 33 36 34 8 3 1 1 1 2 8 23 22 28 31 56 87 93 96 97 97 92 97 80 73 71 76 83 78
30 43 54 52 48 50 54 50 39 16 3 2 1 1 4 22 24 29 33 51 71 97 97 95 95 94 90 99 91 83 96 90
20 23 41 46 60 55 59 63 61 44 20 17 5 2 2 3 17 22 24 34 54 80 87 96 96 98 92 93 94 96 96 89
15 16 22 27 29 35 68 55 64 66 43 20 24 10 4 2 2 10 17 16 39 61 59 95 96 97 96 96 97 95 96 97
4 4 6 8 9 14 18 43 58 66 57 60 24 22 21 7 4 2 4 7 10 31 51 67 78 92 97 98 97 96 96 96
6 5 5 5 5 4 4 6 12 34 58 70 63 36 22 25 14 5 3 2 4 5 13 40 40 49 66 81 97 97 98 97
8 8 7 8 7 7 6 6 4 4 3 7 50 74 54 50 40 24 19 13 6 3 3 3 5 12 26 30 44 38 48 62
10 10 10 11 10 10 9 9 8 8 6 5 4 3 7 31 50 48 44 38 30 20 16 10 6 3 2 6 8 11 16 22
13 12 13 12 12 13 12 12 12 11 9 8 6 5 4 4 3 3 3 4 7 11 17 23 26 21 11 4 8 5 4 4
15 16 16 14 13 14 15 14 14 13 11 8 6 5 4 4 3 3 3 2 2 2 2 2 3 7 18 23 21 32 25 11
19 20 19 16 15 15 14 14 14 13 11 9 7 6 5 5 4 4 4 3 3 3 2 2 2 2 2 2 4 9 14 19
22 22 20 18 17 15 14 14 12 12 12 10 8 8 7 6 5 5 5 4 4 3 3 3 2 2 2 2 2 2 2 3

GFSFLT1_500_rhum_279.txt.gz
RH
41 39 33 30 27 23 19 15 12 14 17 23 35 46 54 50 47 39 31 32 46 52 58 70 65 62 56 35 22 20 18 18
38 35 33 25 20 18 17 14 10 10 13 16 16 21 33 55 51 53 50 45 32 37 56 64 71 66 62 60 47 32 29 27
23 22 21 20 16 14 12 12 13 11 8 6 10 14 13 17 30 39 42 49 56 46 42 55 61 70 69 69 68 56 52 43
16 14 11 6 3 3 4 5 4 4 4 5 8 9 11 13 15 18 22 32 46 56 53 42 46 60 70 71 77 71 62 57
2 2 2 2 2 2 2 1 1 2 2 1 1 2 2 5 10 13 16 23 31 41 50 53 50 41 52 67 72 73 72 66
1 1 1 1 1 1 1 1 1 1 1 1 1 1 1 1 1 3 9 12 13 24 28 36 45 51 50 50 64 62 92 88
2 1 1 1 1 1 1 1 1 3 5 6 5 4 3 2 1 1 1 5 11 12 14 20 26 37 46 55 51 54 60 74
2 2 1 1 2 3 6 10 14 16 15 19 22 20 21 22 11 4 2 1 2 11 13 16 20 25 33 41 51 58 55 52
2 2 2 2 2 4 9 14 16 16 15 18 20 27 29 37 36 27 14 5 2 1 5 14 18 22 27 30 38 42 56 98
3 3 3 2 2 2 3 4 6 9 10 10 13 18 33 41 42 46 29 15 9 4 2 2 12 16 18 24 30 34 38 42
4 4 4 4 4 4 5 4 4 4 4 4 6 9 10 10 20 37 56 44 28 26 11 6 2 6 12 13 16 24 30 37
5 5 5 5 5 5 6 6 6 6 6 6 5 4 4 4 4 5 9 30 63 52 40 31 19 8 3 7 10 9 11 16
8 8 7 6 6 7 7 8 8 8 8 7 7 6 6 5 5 4 4 4 4 6 26 49 58 29 18 12 7 7 7 7
10 9 9 8 8 8 9 9 10 10 9 9 8 8 7 6 6 7 6 6 5 5 5 4 4 5 11 17 18 14 12 15
12 12 11 10 10 10 10 11 10 10 10 10 10 10 9 8 8 7 7 7 7 6 6 6 5 5 4 4 3 3 4 3
14 14 14 12 13 12 12 12 11 10 10 10 11 11 11 10 9 9 9 8 8 7 6 6 5 5 4 4 4 4 4 3
17 16 15 14 14 13 14 13 12 11 11 12 12 12 11 11 10 10 10 10 9 8 8 6 6 5 4 4 4 4 3 3
18 18 17 16 16 15 15 14 12 12 12 13 12 12 11 11 11 12 12 12 11 10 9 7 6 5 5 5 4 3 3 2
20 19 18 18 17 17 16 15 14 13 12 12 12 13 13 13 13 13 12 12 11 10 9 8 7 5 5 4 3 3 2 2

GFSFLT1_500_rhum_282.txt.gz
RH
39 46 40 38 36 31 22 16 14 14 13 13 15 18 20 24 30 34 45 46 40 38 38 56 57 55 61 64 62 61 62 58
42 41 37 31 30 26 24 18 15 12 10 12 10 8 9 12 17 24 35 43 50 48 49 44 44 65 64 62 61 63 61 60
43 38 30 24 20 19 20 18 15 15 14 12 10 10 9 7 6 9 15 24 38 52 49 50 50 48 46 62 68 65 57 64
37 35 33 30 23 18 15 12 10 9 10 10 10 11 11 11 11 9 7 7 10 18 35 41 37 44 50 53 58 65 66 68
41 27 7 3 3 2 2 2 2 2 2 2 2 2 2 2 3 3 3 5 7 8 10 20 25 30 40 49 55 58 54 60
2 2 2 2 1 1 1 1 1 1 1 1 1 1 1 1 1 1 1 1 1 2 5 9 11 21 28 37 43 50 56 51
2 1 1 1 1 1 1 1 1 1 2 3 7 8 11 13 12 9 6 4 2 2 1 2 5 12 16 22 28 30 34 42
2 2 2 2 2 1 1 1 1 2 3 7 12 14 16 15 15 19 18 18 15 11 5 2 1 2 7 16 19 21 23 25
2 2 2 2 2 2 2 1 2 2 2 4 8 8 10 10 12 13 22 22 18 17 12 7 4 3 2 2 7 14 18 22
3 3 3 3 3 3 3 3 2 2 2 2 3 4 4 4 4 3 3 3 5 12 27 18 16 15 10 4 2 2 7 12
4 4 4 4 4 4 4 4 4 4 4 3 3 3 3 3 3 3 3 2 2 3 4 26 40 35 31 30 23 9 4 3
5 5 5 6 6 5 5 6 6 6 5 4 4 4 4 4 4 4 4 4 5 5 5 5 4 5 11 22 35 33 24 12
6 7 7 7 7 7 6 6 6 6 6 5 6 6 6 5 5 5 5 6 6 7 7 7 7 7 6 6 6 5 4 8
8 8 7 8 8 8 8 8 8 7 7 7 7 7 7 7 7 7 7 7 7 8 8 8 8 7 7 6 6 6 6 6
9 9 8 9 9 9 10 10 9 9 8 8 8 8 8 8 8 8 8 8 8 8 8 8 8 7 6 6 5 4 4 4
10 11 11 11 11 12 13 12 11 10 9 8 8 8 9 9 9 9 8 8 8 8 8 8 7 7 6 6 5 4 4 3
13 13 14 14 15 15 15 15 13 10 10 9 9 10 10 9 8 8 9 9 9 9 9 9 9 8 6 6 5 5 5 4
16 16 16 16 17 17 17 16 14 12 12 11 11 11 10 10 10 10 9 9 9 9 10 10 9 8 8 7 6 6 5 5
18 18 17 17 17 17 17 16 15 14 14 13 12 12 12 12 11 11 11 10 10 10 10 10 9 8 8 7 6 7 7 6

GFSFLT1_500_rhum_288.txt.gz
RH
93 91 76 72 65 65 68 70 57 48 37 37 33 25 18 14 12 10 10 10 10 11 11 10 11 11 16 27 37 35 39 42
93 92 91 79 75 72 50 50 48 46 44 50 51 29 17 11 12 14 16 17 11 9 7 8 8 10 10 10 9 12 18 23
64 67 53 46 43 41 40 41 36 26 18 17 20 24 21 19 17 15 16 15 14 13 14 14 14 12 9 8 8 9 11 13
52 46 43 41 40 37 34 30 19 27 33 21 20 20 19 18 9 7 6 6 6 5 5 5 5 5 5 5 6 7 8 8
47 46 46 41 32 23 21 26 24 26 22 7 3 3 4 5 4 4 2 2 2 2 1 1 1 1 1 1 2 2 2 2
44 41 45 44 48 44 42 34 15 3 2 1 1 2 1 1 1 1 1 1 1 1 1 1 2 2 2 3 2 2 1 2
54 56 55 50 49 45 18 2 1 1 1 1 2 1 1 1 1 1 1 1 2 3 5 4 3 2 2 3 3 3 3 2
67 62 62 46 13 2 2 2 2 2 2 2 1 1 1 1 1 1 1 1 2 2 2 2 2 2 2 2 2 2 3 4
33 13 4 2 2 2 2 2 2 2 2 2 2 2 2 2 2 2 2 2 2 2 2 2 2 2 2 2 3 3 3 2
2 2 2 2 2 2 3 2 3 3 3 3 2 2 2 2 2 3 3 3 3 3 3 3 3 3 3 4 4 4 3 2
2 2 2 2 3 3 3 3 4 4 4 4 4 3 2 2 3 3 3 3 3 3 3 3 4 4 4 4 4 4 3 3
3 3 3 4 4 4 4 5 5 5 5 5 4 4 4 4 4 4 4 4 4 3 3 4 5 5 4 4 4 4 4 4
4 4 4 5 5 5 6 6 5 6 6 6 6 5 5 4 4 4 4 4 4 4 4 5 4 4 4 4 4 4 4 3
5 6 6 6 6 6 5 6 6 7 8 7 7 7 6 5 5 4 4 4 5 5 6 5 5 5 4 4 4 4 4 4
6 6 6 6 6 6 6 7 8 8 8 9 8 8 6 6 6 6 6 6 6 6 6 6 5 5 4 4 5 5 7 8
7 7 7 7 8 8 9 9 9 8 9 9 9 8 7 7 7 7 7 7 8 7 7 7 6 6 6 6 7 9 9 9
7 8 9 9 10 10 11 10 10 9 10 10 10 10 10 10 9 9 9 9 9 9 9 10 9 9 8 8 9 9 9 10
9 10 10 12 12 12 11 12 12 11 11 12 12 11 11 11 12 12 11 11 11 11 12 12 11 11 11 11 10 8 10 11
12 13 13 13 14 14 15 14 14 13 12 13 13 13 15 16 16 14 14 13 13 15 17 18 19 18 17 14 10 9 11 12